Hourly Data Report for October 11, 2004

TORONTO CITY
ONTARIO

43°40'00.000" N
79°24'00.000" W
112.50 m
6158355
71508
XTO

Download Data

Hourly Data (October 2004)
Hourly Data Report for October 11, 2004
TIME
LST
Temp Definition
°C
Dew Point Definition
°C
Rel Hum Definition
%
Precip. Amount Definition
mm

Wind Dir Definition
10's deg

Wind Spd Definition
km/h
Visibility Definition
km
Stn Press Definition
kPa
Hmdx Definition


Wind Chill Definition


Weather Definition


00:00 8.0 5.2 82   LegendMM LegendMM LegendMM 100.97     LegendNANA
01:00 7.5 4.1 79   LegendMM LegendMM LegendMM 100.99     LegendNANA
02:00 6.8 3.6 80   LegendMM LegendMM LegendMM 100.95     LegendNANA
03:00 6.3 3.2 81   LegendMM LegendMM LegendMM 100.95     LegendNANA
04:00 5.8 3.0 82   LegendMM LegendMM LegendMM 100.99     LegendNANA
05:00 5.8 2.9 82   LegendMM LegendMM LegendMM 101.02     LegendNANA
06:00 6.2 2.9 79   LegendMM LegendMM LegendMM 101.05     LegendNANA
07:00 6.8 3.1 77   LegendMM LegendMM LegendMM 101.07     LegendNANA
08:00 7.1 2.5 73   LegendMM LegendMM LegendMM 101.10     LegendNANA
09:00 7.4 2.7 72   LegendMM LegendMM LegendMM 101.11     LegendNANA
10:00 7.4 2.3 70   LegendMM LegendMM LegendMM 101.10     LegendNANA
11:00 7.9 2.4 68   LegendMM LegendMM LegendMM 101.06     LegendNANA
12:00 8.2 2.8 69   LegendMM LegendMM LegendMM 101.02     LegendNANA
13:00 9.2 2.6 63   LegendMM LegendMM LegendMM 100.96     LegendNANA
14:00 9.8 2.7 61   LegendMM LegendMM LegendMM 100.91     LegendNANA
15:00 8.7 2.8 66   LegendMM LegendMM LegendMM 100.84     LegendNANA
16:00 8.4 3.1 69   LegendMM LegendMM LegendMM 100.78     LegendNANA
17:00 8.0 3.0 71   LegendMM LegendMM LegendMM 100.81     LegendNANA
18:00 7.4 3.4 76   LegendMM LegendMM LegendMM 100.79     LegendNANA
19:00 6.4 3.5 82   LegendMM LegendMM LegendMM 100.77     LegendNANA
20:00 6.3 3.5 82   LegendMM LegendMM LegendMM 100.74     LegendNANA
21:00 6.4 3.8 83   LegendMM LegendMM LegendMM 100.73     LegendNANA
22:00 6.5 3.4 81   LegendMM LegendMM LegendMM 100.66     LegendNANA
23:00 6.2 3.6 83   LegendMM LegendMM LegendMM 100.59     LegendNANA

Notes on Data Quality.

Legend

  • E = Estimated
  • M = Missing
  • NA = Not Available*
  • [empty] = Indicates an unobserved value
Date modified: